FW4678 Havelock NC US current weather conditions

sailwx.info

Wind from 342 at 2 knots gusting 5

Air temperature 13.9° C
Dewpoint 13.1° C

Last reported at 2020-Jan-25 13:05 UTC.
Time now 2020-Jan-25 13:49 UTC

Location: N 34°53' W 076°55'.
View on Google Maps.

See reports from other nearby stations

  
Tides and Currents Weather Stations Pressure Air Temp Water Temp Dewpoint Dewpoint Depression Visibility Wind Speed Wind Dir Waves Ship Positions
date/time (UTC)wind fromknots sea level pressurealtimeterstation pressurevisibilityair tempwater tempwave heightnotes
2020-Jan-25 13:05 342 2 gusting 5 13.9
2020-Jan-25 13:00 325 2 gusting 5 13.9
2020-Jan-25 12:55 329 2 gusting 5 13.9
2020-Jan-25 12:51 334 3 gusting 5 13.9
2020-Jan-25 12:46 342 1 gusting 3 13.9
2020-Jan-25 12:40 342 1 gusting 7 13.9
2020-Jan-25 12:35 330 3 gusting 7 13.9
2020-Jan-25 12:31 318 3 gusting 7 14.4
2020-Jan-25 12:25 347 3 gusting 7 14.4
2020-Jan-25 12:20 339 3 gusting 9 14.4
2020-Jan-25 12:15 342 3 gusting 11 14.4
2020-Jan-25 12:10 312 7 gusting 13 15.0
2020-Jan-25 12:05 341 6 gusting 13 15.0
2020-Jan-25 12:00 291 5 gusting 9 15.6
2020-Jan-25 11:55 272 2 gusting 6 15.6
2020-Jan-25 11:50 265 3 gusting 6 15.6
2020-Jan-25 11:46 289 3 gusting 6 15.6
2020-Jan-25 11:40 288 4 gusting 6 15.6
2020-Jan-25 11:35 268 4 gusting 7 16.1
2020-Jan-25 11:31 261 3 gusting 7 16.1
2020-Jan-25 11:25 266 3 gusting 7 16.1
2020-Jan-25 11:20 258 4 gusting 11 16.1
2020-Jan-25 11:15 260 5 gusting 11 16.1
2020-Jan-25 11:10 268 5 gusting 11 16.1
2020-Jan-25 11:05 265 6 gusting 14 16.1
2020-Jan-25 11:01 268 8 gusting 16 16.7
2020-Jan-25 10:55 290 9 gusting 20 16.7
2020-Jan-25 10:50 257 8 gusting 20 16.7
2020-Jan-25 10:46 246 9 gusting 17 16.7
2020-Jan-25 10:40 248 7 gusting 19 16.7
2020-Jan-25 10:35 227 6 gusting 19 16.7
2020-Jan-25 10:30 205 6 gusting 14 16.7
2020-Jan-25 10:25 260 6 gusting 13 16.7
2020-Jan-25 10:20 235 5 gusting 15 16.7
2020-Jan-25 10:15 236 8 gusting 15 16.7
2020-Jan-25 10:10 224 6 gusting 19 16.7
2020-Jan-25 10:06 258 9 gusting 19 16.7
2020-Jan-25 10:01 269 6 gusting 13 16.7
2020-Jan-25 09:55 261 6 gusting 13 16.7
2020-Jan-25 09:50 245 5 gusting 11 16.7
2020-Jan-25 09:47 250 4 gusting 9 16.7
2020-Jan-25 09:40 227 4 gusting 10 16.7
2020-Jan-25 09:35 233 5 gusting 10 16.7
2020-Jan-25 09:30 242 6 gusting 12 16.7
2020-Jan-25 09:25 249 6 gusting 12 16.7
2020-Jan-25 09:20 234 2 gusting 11 16.1
2020-Jan-25 09:15 264 5 gusting 11 16.1
2020-Jan-25 09:10 260 6 gusting 11 16.1
2020-Jan-25 09:05 216 6 gusting 11 16.1
2020-Jan-25 09:01 237 4 gusting 11 16.1
2020-Jan-25 08:55 233 5 gusting 12 16.1
2020-Jan-25 08:50 254 6 gusting 14 16.1
2020-Jan-25 08:47 232 7 gusting 14 16.1
2020-Jan-25 08:40 242 6 gusting 13 16.1
2020-Jan-25 08:35 218 5 gusting 10 16.1
2020-Jan-25 08:32 182 4 gusting 11 16.1
2020-Jan-25 08:25 248 6 gusting 11 16.1
2020-Jan-25 08:20 240 5 gusting 10 16.1
2020-Jan-25 08:16 209 5 gusting 10 15.6
2020-Jan-25 08:10 233 5 gusting 9 15.6
2020-Jan-25 08:05 207 3 gusting 9 15.6
2020-Jan-25 08:00 225 2 gusting 9 15.6
2020-Jan-25 07:55 219 3 gusting 7 15.6
2020-Jan-25 07:50 194 4 gusting 7 15.6
2020-Jan-25 07:46 254 3 gusting 7 15.6
2020-Jan-25 07:40 204 2 gusting 6 15.6
2020-Jan-25 07:35 224 2 gusting 7 15.6
2020-Jan-25 07:30 261 3 gusting 9 15.6
2020-Jan-25 07:25 274 6 gusting 9 16.1
2020-Jan-25 07:20 298 5 gusting 9 16.1
2020-Jan-25 07:15 258 5 gusting 10 16.1
2020-Jan-25 07:10 252 4 gusting 10 16.7
2020-Jan-25 07:05 255 6 gusting 9 16.7
2020-Jan-25 07:02 222 4 gusting 9 16.7
2020-Jan-25 06:55 186 3 gusting 9 16.7
2020-Jan-25 06:50 225 5 gusting 14 17.2
2020-Jan-25 06:45 231 5 gusting 14 17.2
2020-Jan-25 06:40 210 5 gusting 10 16.7
2020-Jan-25 06:35 185 6 gusting 10 16.7
2020-Jan-25 06:30 226 4 gusting 10 16.7
2020-Jan-25 06:25 227 2 gusting 6 16.1
2020-Jan-25 06:20 125 1 gusting 7 16.1
2020-Jan-25 06:16 219 3 gusting 9 16.1
2020-Jan-25 06:10 212 4 gusting 12 16.1
2020-Jan-25 06:05 219 5 gusting 12 16.7
2020-Jan-25 06:02 227 6 gusting 12 16.7
2020-Jan-25 05:55 217 4 gusting 12 16.1
2020-Jan-25 05:50 246 3 gusting 6 16.1
2020-Jan-25 05:46 200 3 gusting 9 16.1
2020-Jan-25 05:40 252 3 gusting 9 16.1
2020-Jan-25 05:36 170 3 gusting 11 16.1
2020-Jan-25 05:31 212 5 gusting 11 16.1
2020-Jan-25 05:25 231 4 gusting 9 16.1
2020-Jan-25 05:20 202 3 gusting 8 16.1
2020-Jan-25 05:16 235 4 gusting 11 16.1
2020-Jan-25 05:10 215 5 gusting 11 16.1
2020-Jan-25 05:05 223 2 gusting 8 16.1
2020-Jan-25 05:00 240 2 gusting 8 16.1
2020-Jan-25 04:55 286 2 gusting 6 15.6
2020-Jan-25 04:50 215 2 gusting 6 15.6
2020-Jan-25 04:45 198 2 gusting 6 15.6
2020-Jan-25 04:40 209 2 gusting 6 16.1
2020-Jan-25 04:35 203 1 gusting 6 16.1
2020-Jan-25 04:30 216 4 gusting 9 16.1
2020-Jan-25 04:25 219 2 gusting 9 16.1
2020-Jan-25 04:20 212 2 gusting 6 16.1
2020-Jan-25 04:15 225 1 gusting 6 16.1
2020-Jan-25 04:10 227 2 gusting 6 16.1
2020-Jan-25 04:05 190 2 gusting 6 16.1
2020-Jan-25 04:01 247 3 gusting 6 16.1
2020-Jan-25 03:56 191 1 gusting 5 16.1
2020-Jan-25 03:50 209 1 gusting 6 16.1
2020-Jan-25 03:46 158 2 gusting 6 16.1
2020-Jan-25 03:40 089 0 gusting 9 16.1
2020-Jan-25 03:35 188 2 gusting 9 16.1
2020-Jan-25 03:31 198 2 gusting 6 16.1
2020-Jan-25 03:25 207 2 gusting 10 16.7
2020-Jan-25 03:20 232 3 gusting 10 16.7
2020-Jan-25 03:17 216 3 gusting 10 16.7
2020-Jan-25 03:10 236 4 gusting 10 16.7
2020-Jan-25 03:05 157 1 gusting 8 16.7
2020-Jan-25 03:01 167 3 gusting 10 16.7
2020-Jan-25 02:55 132 1 gusting 10 16.7
2020-Jan-25 02:50 212 1 gusting 7 16.7
2020-Jan-25 02:47 140 1 gusting 7 17.2
2020-Jan-25 02:40 216 2 gusting 7 17.2
2020-Jan-25 02:35 153 3 gusting 7 17.2
2020-Jan-25 02:31 153 1 gusting 5 16.7
2020-Jan-25 02:25 144 1 gusting 4 16.7
2020-Jan-25 02:20 157 1 gusting 4 16.7
2020-Jan-25 02:16 223 1 gusting 4 16.1
2020-Jan-25 02:10 166 0 gusting 2 15.6
2020-Jan-25 02:05 165 0 gusting 2 15.6
2020-Jan-25 02:01 115 0 gusting 1 15.6
2020-Jan-25 01:55 132 0 gusting 1 15.0
2020-Jan-25 01:50 107 15.0
2020-Jan-25 01:47 083 15.0
2020-Jan-25 01:40 094 15.0
2020-Jan-25 01:35 129 0 gusting 2 15.0
2020-Jan-25 01:31 15.0
2020-Jan-25 01:25 170 15.0
2020-Jan-25 01:20 117 15.0
2020-Jan-25 01:15 092 0 gusting 5 15.0
2020-Jan-25 01:10 184 1 gusting 5 15.0
2020-Jan-25 01:05 105 0 gusting 2 15.0
2020-Jan-25 01:00 204 0 gusting 2 15.0
2020-Jan-25 00:55 14.4
2020-Jan-25 00:50 210 14.4
2020-Jan-25 00:46 14.4
2020-Jan-25 00:40 109 0 gusting 2 14.4
2020-Jan-25 00:35 128 0 gusting 2 14.4
2020-Jan-25 00:31 114 1 gusting 2 14.4
2020-Jan-25 00:25 115 0 gusting 1 14.4
2020-Jan-25 00:20 117 14.4
2020-Jan-25 00:16 14.4
2020-Jan-25 00:10 14.4
2020-Jan-25 00:05 084 0 gusting 2 14.4
2020-Jan-25 00:01 081 1 gusting 2 14.4
2020-Jan-24 23:55 105 0 gusting 2 14.4
2020-Jan-24 23:50 121 0 gusting 2 14.4
2020-Jan-24 23:45 109 1 gusting 2 14.4
2020-Jan-24 23:40 098 0 gusting 3 14.4
2020-Jan-24 23:35 211 1 gusting 5 14.4
2020-Jan-24 23:30 092 2 gusting 5 14.4
2020-Jan-24 23:25 151 0 gusting 3 14.4
2020-Jan-24 23:20 103 1 gusting 2 14.4
2020-Jan-24 23:17 090 0 gusting 1 14.4
2020-Jan-24 23:10 086 0 gusting 2 14.4
2020-Jan-24 23:05 129 0 gusting 3 14.4
2020-Jan-24 23:01 097 1 gusting 3 14.4
2020-Jan-24 22:55 077 1 gusting 3 14.4
2020-Jan-24 22:50 102 0 gusting 3 14.4
2020-Jan-24 22:45 078 0 gusting 3 14.4
2020-Jan-24 22:40 071 0 gusting 6 15.0
2020-Jan-24 22:35 077 15.0
2020-Jan-24 22:31 085 3 gusting 6 15.6
2020-Jan-24 22:25 107 1 gusting 4 16.1
2020-Jan-24 22:20 065 2 gusting 4 16.7
2020-Jan-24 22:16 082 1 gusting 5 17.2
2020-Jan-24 22:10 082 2 gusting 5 17.8
2020-Jan-24 22:05 142 1 gusting 5 18.3
2020-Jan-24 22:01 112 2 gusting 5 18.3
2020-Jan-24 21:55 131 0 gusting 6 18.3
2020-Jan-24 21:50 162 1 gusting 7 18.3
2020-Jan-24 21:46 126 3 gusting 8 18.9
2020-Jan-24 21:40 153 1 gusting 8 18.9
2020-Jan-24 21:35 121 3 gusting 9 18.9
2020-Jan-24 21:32 196 4 gusting 9 18.9
2020-Jan-24 21:25 162 2 gusting 7 18.9
2020-Jan-24 21:20 140 3 gusting 8 18.9
2020-Jan-24 21:16 163 2 gusting 9 18.9
2020-Jan-24 21:10 131 4 gusting 13 19.4
2020-Jan-24 21:05 149 5 gusting 13 19.4
2020-Jan-24 21:00 331 4 gusting 11 19.4
2020-Jan-24 20:55 169 6 gusting 12 19.4
2020-Jan-24 20:50 113 6 gusting 12 20.0
2020-Jan-24 20:47 244 4 gusting 11 20.0
2020-Jan-24 20:40 134 7 gusting 12 20.0
2020-Jan-24 20:35 117 6 gusting 13 20.0
2020-Jan-24 20:31 194 5 gusting 13 19.4
2020-Jan-24 20:25 114 6 gusting 12 19.4
2020-Jan-24 20:20 130 3 gusting 8 18.9
2020-Jan-24 20:15 138 3 gusting 8 18.9
2020-Jan-24 20:10 108 3 gusting 7 18.3
2020-Jan-24 20:05 051 4 gusting 8 18.3
2020-Jan-24 20:01 096 3 gusting 8 18.3
2020-Jan-24 19:55 082 2 gusting 6 17.8
2020-Jan-24 19:50 096 3 gusting 6 17.8
2020-Jan-24 19:46 086 1 gusting 6 17.2
2020-Jan-24 19:40 116 2 gusting 6 17.2
2020-Jan-24 19:35 076 1 gusting 5 17.2
2020-Jan-24 19:31 090 1 gusting 6 17.2
2020-Jan-24 19:25 081 2 gusting 6 16.7
2020-Jan-24 19:20 074 4 gusting 6 16.7
2020-Jan-24 19:16 069 3 gusting 6 16.7
2020-Jan-24 19:10 088 2 gusting 5 16.7
2020-Jan-24 19:05 064 2 gusting 6 16.7
2020-Jan-24 19:00 064 4 gusting 7 16.1
2020-Jan-24 18:55 094 5 gusting 8 16.1
2020-Jan-24 18:50 071 3 gusting 9 16.7
2020-Jan-24 18:46 109 4 gusting 9 16.7
2020-Jan-24 18:40 107 3 gusting 9 17.2
2020-Jan-24 18:36 046 5 gusting 9 17.2
2020-Jan-24 18:31 082 4 gusting 7 16.7
2020-Jan-24 18:25 059 3 gusting 7 16.7
2020-Jan-24 18:20 115 0 gusting 4 16.7
2020-Jan-24 18:16 076 1 gusting 8 16.1
2020-Jan-24 18:10 081 3 gusting 8 16.1
2020-Jan-24 18:05 082 5 gusting 8 16.1
2020-Jan-24 18:01 107 5 gusting 8 16.7
2020-Jan-24 17:55 109 1 gusting 5 16.1
2020-Jan-24 17:50 079 2 gusting 6 16.1
2020-Jan-24 17:47 076 3 gusting 6 16.1
2020-Jan-24 17:40 103 2 gusting 8 16.1
2020-Jan-24 17:35 049 3 gusting 10 16.1
2020-Jan-24 17:30 075 5 gusting 11 16.7
2020-Jan-24 17:25 088 6 gusting 11 17.2
2020-Jan-24 17:20 132 4 gusting 7 17.8
2020-Jan-24 17:16 107 4 gusting 7 17.2
2020-Jan-24 17:10 111 2 gusting 6 17.2
2020-Jan-24 17:05 135 2 gusting 6 17.2
2020-Jan-24 17:02 186 1 gusting 4 16.7
2020-Jan-24 16:55 138 0 gusting 6 16.7
2020-Jan-24 16:50 107 2 gusting 6 16.1
2020-Jan-24 16:46 117 2 gusting 8 16.1
2020-Jan-24 16:40 101 3 gusting 9 16.1
2020-Jan-24 16:35 080 5 gusting 9 16.1
2020-Jan-24 16:32 098 3 gusting 8 16.1
2020-Jan-24 16:25 128 4 gusting 10 16.1
2020-Jan-24 16:20 098 6 gusting 10 15.6
2020-Jan-24 16:16 067 3 gusting 7 15.6
2020-Jan-24 16:10 099 4 gusting 7 15.6
2020-Jan-24 16:05 080 1 gusting 6 15.6
2020-Jan-24 16:00 086 4 gusting 8 15.0
2020-Jan-24 15:55 088 5 gusting 8 15.0
2020-Jan-24 15:50 109 5 gusting 9 15.0
2020-Jan-24 15:46 103 6 gusting 9 15.0
2020-Jan-24 15:40 082 4 gusting 10 15.0
2020-Jan-24 15:35 105 5 gusting 10 14.4
2020-Jan-24 15:31 085 3 gusting 7 14.4
2020-Jan-24 15:25 092 4 gusting 6 13.9
2020-Jan-24 15:20 088 4 gusting 6 13.9
2020-Jan-24 15:15 106 1 gusting 3 13.9
2020-Jan-24 15:11 076 1 gusting 6 13.3
2020-Jan-24 15:05 105 0 gusting 6 13.3
2020-Jan-24 15:00 085 4 gusting 6 12.8
2020-Jan-24 14:56 107 2 gusting 6 12.8
2020-Jan-24 14:50 125 5 gusting 8 12.8
2020-Jan-24 14:46 089 4 gusting 8 12.2
2020-Jan-24 14:40 100 4 gusting 7 12.2
2020-Jan-24 14:35 094 2 gusting 7 12.2
2020-Jan-24 14:31 098 4 gusting 9 12.2
2020-Jan-24 14:25 080 5 gusting 9 12.2
2020-Jan-24 14:20 055 1 gusting 7 12.2
2020-Jan-24 14:16 074 4 gusting 7 11.7
2020-Jan-24 14:10 097 3 gusting 6 11.7
2020-Jan-24 14:05 101 1 gusting 7 11.1
2020-Jan-24 14:01 086 1 gusting 7 11.1
2020-Jan-24 13:55 077 4 gusting 7 11.1
2020-Jan-24 13:50 059 2 gusting 6 10.6
2020-Jan-24 13:46 093 2 gusting 6 10.6
2020-Jan-24 13:40 107 1 gusting 3 10.0
2020-Jan-24 13:35 088 0 gusting 2 10.0
2020-Jan-24 13:32 097 1 gusting 2 9.4
2020-Jan-24 13:25 074 1 gusting 2 9.4
2020-Jan-24 13:20 132 0 gusting 4 9.4
2020-Jan-24 13:15 073 1 gusting 4 9.4
2020-Jan-24 13:10 091 2 gusting 3 9.4
2020-Jan-24 13:05 084 0 gusting 2 9.4
2020-Jan-24 13:01 086 0 gusting 3 9.4
2020-Jan-24 12:55 082 0 gusting 3 8.9
2020-Jan-24 12:50 078 0 gusting 1 8.9
2020-Jan-24 12:45 119 8.9
2020-Jan-24 12:40 065 8.9
2020-Jan-24 12:35 080 8.9
2020-Jan-24 12:31 210 8.9
2020-Jan-24 12:25 8.9
2020-Jan-24 12:20 224 8.9
2020-Jan-24 12:16 223 8.9
2020-Jan-24 12:10 217 8.9
2020-Jan-24 12:05 217 8.9
2020-Jan-24 12:00 8.9
2020-Jan-24 11:55 240 9.4
2020-Jan-24 11:50 9.4
2020-Jan-24 11:46 212 9.4
2020-Jan-24 11:40 9.4
2020-Jan-24 11:35 140 0 gusting 3 9.4
2020-Jan-24 11:31 085 1 gusting 3 9.4
2020-Jan-24 11:25 091 0 gusting 2 9.4
2020-Jan-24 11:20 074 9.4
2020-Jan-24 11:16 096 0 gusting 2 8.9
2020-Jan-24 11:10 065 0 gusting 3 8.9
2020-Jan-24 11:05 103 0 gusting 3 8.9
2020-Jan-24 11:00 082 0 gusting 3 8.9
2020-Jan-24 10:55 093 0 gusting 2 8.9
2020-Jan-24 10:50 096 8.9
2020-Jan-24 10:45 074 0 gusting 2 8.9
2020-Jan-24 10:40 081 0 gusting 2 8.9
2020-Jan-24 10:35 074 0 gusting 2 8.9
2020-Jan-24 10:31 096 8.9
2020-Jan-24 10:25 086 0 gusting 2 8.9
2020-Jan-24 10:20 082 0 gusting 3 8.9
2020-Jan-24 10:16 078 1 gusting 4 8.9
2020-Jan-24 10:10 107 2 gusting 4 8.9
2020-Jan-24 10:05 094 1 gusting 4 8.9
2020-Jan-24 10:02 101 8.9
2020-Jan-24 09:55 071 0 gusting 3 8.9
2020-Jan-24 09:50 8.9
2020-Jan-24 09:46 059 8.9
2020-Jan-24 09:40 8.9
2020-Jan-24 09:35 067 8.9
2020-Jan-24 09:31 082 8.9
2020-Jan-24 09:26 198 8.9
2020-Jan-24 09:20 202 8.3
2020-Jan-24 09:16 8.9
2020-Jan-24 09:10 089 0 gusting 0 8.3
2020-Jan-24 09:05 8.9
2020-Jan-24 09:01 084 8.3
2020-Jan-24 08:55 8.3
2020-Jan-24 08:50 042 8.3
2020-Jan-24 08:45 8.9
2020-Jan-24 08:40 069 1 gusting 2 8.9
2020-Jan-24 08:35 8.9
2020-Jan-24 08:31 074 8.9
2020-Jan-24 08:25 8.9
2020-Jan-24 08:20 090 8.9
2020-Jan-24 08:17 083 0 gusting 2 8.9
2020-Jan-24 08:10 100 8.9
2020-Jan-24 08:05 024 8.9
2020-Jan-24 08:01 090 8.9
2020-Jan-24 07:55 057 8.9
2020-Jan-24 07:50 074 8.9
2020-Jan-24 07:46 088 0 gusting 2 8.9
2020-Jan-24 07:40 084 1 gusting 2 8.9
2020-Jan-24 07:35 080 8.9
2020-Jan-24 07:30 061 8.9
2020-Jan-24 07:25 096 0 gusting 3 8.9
2020-Jan-24 07:20 072 0 gusting 2 9.4
2020-Jan-24 07:16 094 0 gusting 2 9.4
2020-Jan-24 07:10 142 0 gusting 2 9.4
2020-Jan-24 07:05 089 0 gusting 2 9.4
2020-Jan-24 07:01 076 9.4
2020-Jan-24 06:55 059 9.4
2020-Jan-24 06:50 087 9.4
2020-Jan-24 06:46 150 9.4
2020-Jan-24 06:40 061 9.4
2020-Jan-24 06:35 078 0 gusting 2 9.4
2020-Jan-24 06:31 9.4
2020-Jan-24 06:25 036 0 gusting 1 9.4
2020-Jan-24 06:20 064 9.4
2020-Jan-24 06:16 057 0 gusting 1 9.4
2020-Jan-24 06:10 028 9.4
2020-Jan-24 06:05 057 0 gusting 1 9.4
2020-Jan-24 06:00 9.4
2020-Jan-24 05:55 9.4
2020-Jan-24 05:50 9.4
2020-Jan-24 05:45 086 0 gusting 1 9.4
2020-Jan-24 05:40 084 0 gusting 1 9.4
2020-Jan-24 05:35 9.4
2020-Jan-24 05:31 9.4
2020-Jan-24 05:25 094 9.4
2020-Jan-24 05:20 9.4
2020-Jan-24 05:16 083 0 gusting 1 9.4
2020-Jan-24 05:10 059 0 gusting 2 9.4
2020-Jan-24 05:05 076 0 gusting 2 9.4
2020-Jan-24 05:01 182 9.4
2020-Jan-24 04:55 044 10.0
2020-Jan-24 04:50 352 10.0
2020-Jan-24 04:46 061 0 gusting 2 10.0
2020-Jan-24 04:40 034 10.0
2020-Jan-24 04:35 067 10.0
2020-Jan-24 04:31 10.0
2020-Jan-24 04:25 077 10.0
2020-Jan-24 04:20 113 10.0
2020-Jan-24 04:15 088 10.0
2020-Jan-24 04:10 091 0 gusting 1 10.0
2020-Jan-24 04:05 090 10.0
2020-Jan-24 04:01 101 0 gusting 2 10.0
2020-Jan-24 03:55 087 0 gusting 1 10.0
2020-Jan-24 03:50 061 0 gusting 1 10.0
2020-Jan-24 03:46 034 10.0
2020-Jan-24 03:40 10.0
2020-Jan-24 03:35 085 0 gusting 2 10.0
2020-Jan-24 03:31 071 0 gusting 0 10.0
2020-Jan-24 03:25 066 10.0
2020-Jan-24 03:20 10.0
2020-Jan-24 03:16 042 10.0
2020-Jan-24 03:10 058 0 gusting 3 10.0
2020-Jan-24 03:05 076 1 gusting 3 10.0
2020-Jan-24 03:01 094 0 gusting 5 10.0
2020-Jan-24 02:55 105 1 gusting 5 10.0
2020-Jan-24 02:50 098 0 gusting 2 10.6
2020-Jan-24 02:46 044 0 gusting 3 10.6
2020-Jan-24 02:40 095 0 gusting 3 10.6
2020-Jan-24 02:35 071 10.6
2020-Jan-24 02:30 065 10.6
2020-Jan-24 02:25 067 0 gusting 3 10.6
2020-Jan-24 02:20 10.6
2020-Jan-24 02:16 067 10.6
2020-Jan-24 02:10 074 1 gusting 6 10.6
2020-Jan-24 02:05 084 2 gusting 6 10.6
2020-Jan-24 02:02 055 2 gusting 6 10.6
2020-Jan-24 01:55 061 1 gusting 3 10.6
2020-Jan-24 01:50 084 1 gusting 3 10.6
2020-Jan-24 01:45 077 1 gusting 3 10.6
2020-Jan-24 01:40 098 11.1
2020-Jan-24 01:35 071 0 gusting 1 11.1
2020-Jan-24 01:32 067 0 gusting 1 11.1
2020-Jan-24 01:25 080 0 gusting 2 11.1
2020-Jan-24 01:20 103 0 gusting 3 11.1
2020-Jan-24 01:16 044 1 gusting 3 11.1
2020-Jan-24 01:10 096 1 gusting 6 11.1
2020-Jan-24 01:05 050 1 gusting 7 11.1
2020-Jan-24 01:01 060 3 gusting 7 11.1
2020-Jan-24 00:55 075 2 gusting 7 11.1
2020-Jan-24 00:50 086 2 gusting 7 11.1
2020-Jan-24 00:46 080 1 gusting 6 11.7
2020-Jan-24 00:40 072 1 gusting 8 11.7
2020-Jan-24 00:35 057 3 gusting 8 11.7
2020-Jan-24 00:32 115 5 gusting 8 11.7
2020-Jan-24 00:25 074 2 gusting 6 11.7
2020-Jan-24 00:20 115 3 gusting 8 11.7
2020-Jan-24 00:16 094 4 gusting 8 11.7
2020-Jan-24 00:10 080 4 gusting 8 11.7
2020-Jan-24 00:05 109 3 gusting 8 11.7
2020-Jan-24 00:01 074 3 gusting 7 12.2
2020-Jan-23 23:55 114 5 gusting 8 12.2
2020-Jan-23 23:50 084 2 gusting 9 12.2
2020-Jan-23 23:46 102 4 gusting 9 12.2
2020-Jan-23 23:40 088 2 gusting 6 12.2
2020-Jan-23 23:35 080 2 gusting 6 12.2
2020-Jan-23 23:31 015 1 gusting 6 12.2
2020-Jan-23 23:25 078 0 gusting 8 12.2
2020-Jan-23 23:20 071 4 gusting 8 12.2
2020-Jan-23 23:16 080 2 gusting 6 12.8
2020-Jan-23 23:10 085 2 gusting 7 12.8
2020-Jan-23 23:05 081 3 gusting 7 12.8
2020-Jan-23 23:02 086 2 gusting 6 12.8
2020-Jan-23 22:55 134 1 gusting 9 12.8
2020-Jan-23 22:50 076 3 gusting 9 12.8
2020-Jan-23 22:45 101 2 gusting 5 12.8
2020-Jan-23 22:40 103 1 gusting 5 13.3
2020-Jan-23 22:35 116 1 gusting 7 13.3
2020-Jan-23 22:30 103 1 gusting 7 13.3
2020-Jan-23 22:25 083 3 gusting 6 13.3
2020-Jan-23 22:20 066 1 gusting 5 13.3
2020-Jan-23 22:15 343 1 gusting 6 13.3
2020-Jan-23 22:10 019 0 gusting 6 13.3
2020-Jan-23 22:06 058 2 gusting 6 13.3
2020-Jan-23 22:01 074 0 gusting 6 13.9
2020-Jan-23 21:55 085 2 gusting 7 13.9
2020-Jan-23 21:50 051 3 gusting 7 13.9
2020-Jan-23 21:45 117 4 gusting 7 13.9
2020-Jan-23 21:40 088 1 gusting 8 13.9
2020-Jan-23 21:36 074 2 gusting 8 13.9
2020-Jan-23 21:31 061 1 gusting 3 13.9
2020-Jan-23 21:25 061 1 gusting 6 13.9
2020-Jan-23 21:20 100 2 gusting 6 13.9
2020-Jan-23 21:16 113 2 gusting 10 14.4
2020-Jan-23 21:10 011 4 gusting 11 14.4
2020-Jan-23 21:05 067 5 gusting 11 14.4
2020-Jan-23 21:01 092 2 gusting 8 14.4
2020-Jan-23 20:55 094 3 gusting 8 14.4
2020-Jan-23 20:50 101 1 gusting 6 14.4
2020-Jan-23 20:46 329 1 gusting 9 14.4
2020-Jan-23 20:40 081 5 gusting 9 14.4
2020-Jan-23 20:35 074 3 gusting 8 14.4
2020-Jan-23 20:30 057 3 gusting 9 14.4
2020-Jan-23 20:25 087 2 gusting 9 14.4
2020-Jan-23 20:20 070 6 gusting 8 14.4
2020-Jan-23 20:15 055 2 gusting 8 14.4
2020-Jan-23 20:10 067 4 gusting 8 14.4
2020-Jan-23 20:05 118 3 gusting 9 14.4
2020-Jan-23 20:01 071 5 gusting 9 14.4
2020-Jan-23 19:55 081 5 gusting 9 14.4
2020-Jan-23 19:50 101 5 gusting 9 14.4
2020-Jan-23 19:46 073 3 gusting 8 14.4
2020-Jan-23 19:40 028 5 gusting 10 14.4
2020-Jan-23 19:35 046 6 gusting 10 14.4
2020-Jan-23 19:31 081 5 gusting 10 14.4
2020-Jan-23 19:25 090 6 gusting 9 14.4
2020-Jan-23 19:20 092 5 gusting 12 14.4
2020-Jan-23 19:16 126 7 gusting 12 14.4
2020-Jan-23 19:10 088 6 gusting 11 14.4
2020-Jan-23 19:06 115 7 gusting 11 14.4
2020-Jan-23 19:02 104 3 gusting 11 14.4
2020-Jan-23 18:55 117 6 gusting 12 13.9
2020-Jan-23 18:50 072 6 gusting 12 14.4
2020-Jan-23 18:46 093 5 gusting 11 14.4
2020-Jan-23 18:40 141 6 gusting 11 14.4
2020-Jan-23 18:35 090 6 gusting 11 14.4
2020-Jan-23 18:32 121 3 gusting 10 14.4
2020-Jan-23 18:25 080 4 gusting 10 14.4
2020-Jan-23 18:20 072 3 gusting 13 13.9
2020-Jan-23 18:17 080 7 gusting 13 13.9
2020-Jan-23 18:10 130 5 gusting 13 14.4
2020-Jan-23 18:05 121 8 gusting 13 13.9
2020-Jan-23 18:01 070 6 gusting 13 13.9
2020-Jan-23 17:55 096 6 gusting 13 13.9
2020-Jan-23 17:50 117 6 gusting 11 13.9
2020-Jan-23 17:46 071 3 gusting 12 13.9
2020-Jan-23 17:40 114 7 gusting 13 13.3
2020-Jan-23 17:35 119 7 gusting 13 13.3
2020-Jan-23 17:30 102 7 gusting 11 12.8
2020-Jan-23 17:25 125 6 gusting 10 12.8
2020-Jan-23 17:20 092 4 gusting 10 12.8
2020-Jan-23 17:15 061 1 gusting 10 12.8
2020-Jan-23 17:10 057 5 gusting 9 12.8
2020-Jan-23 17:05 103 2 gusting 8 12.2
2020-Jan-23 17:01 088 4 gusting 11 12.2
2020-Jan-23 16:55 075 6 gusting 11 11.7
2020-Jan-23 16:50 082 6 gusting 11 11.1
2020-Jan-23 16:47 124 7 gusting 11 11.1
2020-Jan-23 16:40 088 2 gusting 7 11.1
2020-Jan-23 16:35 079 2 gusting 7 10.6
2020-Jan-23 16:31 055 3 gusting 7 10.6
2020-Jan-23 16:25 016 1 gusting 9 10.6
2020-Jan-23 16:20 080 5 gusting 9 10.0
2020-Jan-23 16:15 053 1 gusting 6 10.0
2020-Jan-23 16:10 055 3 gusting 6 9.4
2020-Jan-23 16:05 076 3 gusting 6 9.4
2020-Jan-23 16:00 030 2 gusting 13 8.9
2020-Jan-23 15:55 053 6 gusting 13 8.9
2020-Jan-23 15:50 124 0 gusting 5 8.9
2020-Jan-23 15:45 049 1 gusting 8 8.3
2020-Jan-23 15:40 073 4 gusting 8 8.3
2020-Jan-23 15:36 105 2 gusting 7 8.3
2020-Jan-23 15:31 089 2 gusting 7 7.8
2020-Jan-23 15:25 092 3 gusting 7 7.8
2020-Jan-23 15:20 057 2 gusting 8 7.8
2020-Jan-23 15:16 101 2 gusting 9 7.2
2020-Jan-23 15:10 041 3 gusting 9 7.2
2020-Jan-23 15:05 116 2 gusting 8 7.2
2020-Jan-23 15:01 031 3 gusting 8 6.7
2020-Jan-23 14:55 099 2 gusting 8 6.7
2020-Jan-23 14:50 103 3 gusting 8 6.1
2020-Jan-23 14:45 088 3 gusting 8 6.1
2020-Jan-23 14:40 071 1 gusting 6 6.1
2020-Jan-23 14:35 093 2 gusting 7 5.6
2020-Jan-23 14:31 059 2 gusting 7 5.6
2020-Jan-23 14:25 093 2 gusting 7 5.0
2020-Jan-23 14:20 061 4 gusting 7 5.0
2020-Jan-23 14:16 077 1 gusting 5 5.0
2020-Jan-23 14:10 035 2 gusting 7 5.0
2020-Jan-23 14:05 078 3 gusting 7 4.4
2020-Jan-23 14:00 092 3 gusting 7 4.4
2020-Jan-23 13:55 049 1 gusting 5 4.4
2020-Jan-23 13:51 069 1 gusting 8 4.4
2020-Jan-23 13:46 078 2 gusting 8 3.9
2020-Jan-23 13:40 044 1 gusting 7 3.9
2020-Jan-23 13:35 039 2 gusting 6 3.9
2020-Jan-23 13:30 309 2 gusting 6 3.9
2020-Jan-23 13:25 049 1 gusting 6 3.3
2020-Jan-23 13:20 044 2 gusting 6 3.3
2020-Jan-23 13:15 040 1 gusting 6 3.3
2020-Jan-23 13:10 051 0 gusting 5 3.3
2020-Jan-23 13:05 075 1 gusting 5 3.3
2020-Jan-23 13:01 2.8